Terminal Aerodrome Forecast
Issued by NWS

Current Version | Previous Version | Graphics & Text | Print | Product List | Glossary On
Versions: 1 2 3 4 5 6 7 8 9 10 11 12 13 14 15 16 17 18 19 20 21 22 23 24
000
FTUS41 KRNK 140526
TAFLWB
TAF
KLWB 140526Z 1406/1506 00000KT P6SM BKN035 OVC060
     FM140800 00000KT 2SM BR OVC040
      TEMPO 1408/1409 1SM BR OVC003
     FM141300 VRB03KT P6SM OVC020
      TEMPO 1413/1414 2SM BR
     FM141400 VRB03KT P6SM VCSH OVC020
     FM141900 10004KT P6SM OVC035
     FM142100 VRB03KT P6SM VCSH OVC035
     FM142200 VRB03KT P6SM VCSH BKN030
     FM150000 00000KT P6SM BKN030=

USA.gov is the U.S. government's official web portal to all federal, state and local government web resources and services.